Zurück zum Katalog

STARLINK-35156

AktivKommunikationSSO
NORAD 65607·PAYLOAD·🇺🇸 United States

Gestartet Sep 13, 2025 von Cape Canaveral Space Force Station

Loading…

Nächste Überflüge (nächste 24 Stunden)

TLE

AktuellSource: CelesTrak SupGP

Epoche: Sep 15, 2026, 03:26 UTC

1 65607C 25207R   26258.14354167  .00019950  00000+0  12128-2 0  2581
2 65607  97.2849 320.8812 0001124  74.7595 356.3401 15.10543026    14

Verfolge STARLINK-35156 in Echtzeit mit AllMySat

Download on the App Store